Precipitable_Water
1.49 1.68 1.70 1.64 1.59 1.57 1.52 1.35 1.24 1.20 1.10 1.06 1.06 1.10 1.16 1.26 1.32 1.42 1.52 1.62 1.80 1.78 1.68 1.51 1.15 1.18 1.05 1.01 1.05 1.17 1.21 1.22 1.28 1.29 1.27 1.18 1.20 1.22 1.26 1.32 1.41 1.47 1.55
1.58 1.70 1.70 1.64 1.55 1.54 1.46 1.35 1.26 1.18 1.07 1.01 1.05 1.13 1.16 1.25 1.33 1.46 1.55 1.69 1.76 1.67 1.58 1.31 1.17 1.05 1.07 1.02 1.19 1.24 1.23 1.28 1.31 1.35 1.40 1.40 1.36 1.40 1.43 1.49 1.52 1.49 1.49
1.58 1.68 1.69 1.61 1.57 1.47 1.42 1.34 1.26 1.16 1.08 1.02 1.05 1.18 1.24 1.29 1.42 1.55 1.59 1.64 1.65 1.52 1.34 1.11 1.10 1.02 1.05 1.09 1.19 1.26 1.30 1.33 1.35 1.34 1.25 1.18 1.21 1.26 1.33 1.33 1.31 1.30 1.25
1.64 1.67 1.67 1.63 1.57 1.47 1.41 1.33 1.28 1.14 1.08 1.02 1.02 1.16 1.29 1.40 1.51 1.51 1.54 1.55 1.48 1.30 1.10 1.02 1.01 1.07 1.11 1.18 1.22 1.25 1.31 1.32 1.29 1.15 1.05 1.01 1.06 1.10 1.04 1.01 0.99 1.00 0.96
1.65 1.69 1.66 1.61 1.59 1.50 1.41 1.35 1.32 1.12 1.05 1.00 1.02 1.11 1.17 1.33 1.36 1.41 1.45 1.45 1.29 0.98 0.91 1.04 1.02 1.10 1.18 1.19 1.20 1.24 1.27 1.21 1.14 0.91 0.83 0.86 0.89 0.92 0.92 0.90 0.89 0.88 0.86
1.66 1.69 1.67 1.61 1.59 1.49 1.40 1.39 1.30 1.14 1.06 1.03 1.00 1.01 1.03 1.13 1.19 1.22 1.29 1.24 0.99 0.90 1.02 0.97 1.09 1.20 1.18 1.14 1.12 1.08 1.05 1.02 0.93 0.75 0.78 0.83 0.84 0.88 0.87 0.87 0.87 0.87 0.85
1.69 1.72 1.67 1.63 1.57 1.50 1.45 1.41 1.30 1.16 1.05 1.02 1.05 1.04 1.01 1.00 0.99 0.99 1.08 0.88 0.85 0.93 0.95 1.12 1.18 1.16 1.09 1.06 1.02 0.97 0.92 0.82 0.73 0.76 0.81 0.86 0.90 0.92 0.92 0.90 0.89 0.88 0.88
1.68 1.73 1.69 1.67 1.56 1.53 1.50 1.44 1.33 1.19 1.05 0.99 1.02 1.05 1.09 0.99 0.92 0.93 0.92 0.89 0.86 0.94 1.08 1.18 1.16 1.05 0.98 0.98 0.96 0.91 0.80 0.71 0.74 0.77 0.82 0.88 0.92 0.93 0.92 0.92 0.90 0.90 0.92
1.77 1.73 1.73 1.66 1.58 1.56 1.55 1.49 1.38 1.24 1.11 0.97 0.97 1.00 1.02 0.93 0.91 0.94 1.09 1.13 1.08 0.99 1.16 1.13 1.07 1.01 0.98 0.99 0.95 0.95 0.87 0.77 0.77 0.81 0.86 0.91 0.94 0.95 0.95 0.94 0.93 0.94 0.96
1.71 1.76 1.73 1.62 1.59 1.58 1.56 1.50 1.40 1.31 1.18 0.99 0.90 0.95 0.92 0.91 0.89 1.07 1.15 1.17 1.16 1.15 1.10 1.07 1.05 1.00 0.95 0.97 0.97 0.99 1.00 0.92 0.85 0.86 0.90 0.94 0.95 0.96 0.97 0.97 0.96 0.96 0.96
1.65 1.71 1.68 1.58 1.59 1.61 1.58 1.50 1.43 1.37 1.28 1.08 0.86 0.91 0.96 0.92 0.98 1.07 1.11 1.12 1.18 1.16 1.07 1.06 1.05 0.94 0.94 0.99 1.03 1.02 1.01 0.97 0.91 0.91 0.95 0.98 0.98 0.98 0.96 0.95 0.94 0.94 0.95
1.47 1.60 1.62 1.59 1.58 1.56 1.54 1.48 1.44 1.36 1.28 1.14 0.93 0.89 0.96 1.01 1.01 1.07 1.08 1.08 1.11 1.12 1.08 1.07 0.95 0.93 0.98 1.00 1.03 1.04 1.02 1.02 0.96 0.95 0.97 0.99 0.99 0.98 0.95 0.95 0.95 0.94 0.94
1.58 1.60 1.63 1.62 1.61 1.56 1.49 1.43 1.41 1.35 1.23 1.17 1.05 0.89 0.94 0.99 1.02 1.02 1.06 1.04 1.05 1.05 1.04 0.98 0.93 0.93 0.98 1.00 1.01 1.03 1.02 1.02 1.00 0.97 0.96 0.98 0.99 0.99 0.97 0.97 0.96 0.96 0.95
1.62 1.50 1.61 1.64 1.60 1.57 1.52 1.42 1.36 1.26 1.21 1.12 1.09 0.96 0.86 0.91 0.95 0.97 0.96 0.98 0.97 0.96 0.91 0.94 0.94 0.94 0.99 1.02 1.03 0.99 1.01 1.00 1.00 1.00 1.01 0.98 0.98 0.97 0.97 0.98 1.00 1.00 1.00
1.72 1.59 1.44 1.63 1.55 1.55 1.49 1.41 1.34 1.19 1.10 1.14 1.10 1.06 0.96 0.89 0.87 0.92 0.92 0.92 0.94 0.97 0.97 1.00 1.05 1.07 1.07 1.07 1.07 1.01 0.99 0.99 0.99 0.99 1.00 1.02 1.01 1.00 1.01 1.02 1.02 1.04 1.04
1.67 1.63 1.68 1.53 1.56 1.55 1.47 1.38 1.28 1.20 1.10 1.09 1.11 1.10 1.07 1.01 0.91 0.87 0.87 0.92 0.96 1.00 1.02 1.04 1.04 1.05 1.07 1.07 1.04 1.05 1.02 1.01 1.00 0.99 1.00 1.03 1.03 1.05 1.06 1.08 1.10 1.09 1.09
1.63 1.67 1.61 1.54 1.58 1.55 1.47 1.40 1.33 1.26 1.18 1.12 1.05 1.21 1.18 1.16 1.13 1.04 0.89 0.90 0.91 1.01 1.04 1.06 1.08 1.09 1.04 1.04 1.02 1.03 1.04 1.01 0.97 0.96 1.01 1.05 1.07 1.09 1.12 1.16 1.20 1.22 1.21
1.58 1.64 1.63 1.58 1.59 1.60 1.53 1.45 1.37 1.31 1.26 1.20 1.18 1.22 1.28 1.25 1.25 1.20 1.07 1.10 1.13 1.13 1.17 1.16 1.11 1.04 1.01 0.98 0.96 0.96 0.98 0.97 0.98 0.92 0.98 1.04 1.10 1.14 1.19 1.24 1.30 1.35 1.37
1.57 1.59 1.61 1.63 1.57 1.60 1.63 1.53 1.46 1.44 1.35 1.32 1.28 1.27 1.29 1.29 1.26 1.25 1.20 1.23 1.28 1.25 1.22 1.21 1.18 1.15 1.09 1.05 1.00 0.99 0.96 0.91 0.94 0.93 0.93 1.01 1.08 1.16 1.24 1.30 1.37 1.41 1.43
1.58 1.58 1.64 1.74 1.74 1.66 1.71 1.65 1.56 1.54 1.46 1.41 1.36 1.33 1.33 1.33 1.28 1.25 1.26 1.27 1.27 1.24 1.22 1.21 1.17 1.19 1.16 1.11 1.07 1.04 1.04 1.00 0.96 0.92 0.91 0.99 1.08 1.16 1.25 1.31 1.40 1.44 1.45
1.59 1.58 1.64 1.64 1.74 1.72 1.69 1.72 1.64 1.52 1.51 1.48 1.49 1.43 1.37 1.37 1.35 1.31 1.29 1.31 1.32 1.26 1.22 1.21 1.18 1.13 1.10 1.11 1.03 1.03 1.07 1.08 1.06 1.03 0.98 0.97 1.04 1.15 1.25 1.34 1.41 1.44 1.44
1.49 1.54 1.56 1.62 1.65 1.71 1.70 1.77 1.72 1.76 1.66 1.66 1.65 1.58 1.48 1.41 1.41 1.38 1.37 1.34 1.32 1.27 1.24 1.23 1.22 1.15 1.14 1.17 1.05 1.04 0.88 0.95 1.07 1.10 1.08 1.08 1.08 1.20 1.29 1.39 1.43 1.44 1.42
1.38 1.46 1.52 1.57 1.63 1.76 1.78 1.81 1.71 1.55 1.62 1.72 1.65 1.63 1.63 1.59 1.57 1.53 1.49 1.43 1.42 1.40 1.34 1.34 1.33 1.27 1.16 1.25 1.27 1.08 0.91 0.82 0.99 1.15 1.16 1.21 1.24 1.25 1.30 1.37 1.43 1.43 1.39
1.16 1.28 1.40 1.49 1.49 1.49 1.77 1.60 1.51 1.51 1.49 1.60 1.61 1.67 1.65 1.66 1.60 1.61 1.57 1.51 1.52 1.52 1.48 1.50 1.52 1.45 1.40 1.25 1.31 1.30 1.23 1.21 1.03 0.99 1.21 1.22 1.27 1.28 1.29 1.37 1.39 1.34 1.26
1.14 1.12 1.20 1.30 1.38 1.50 1.60 1.66 1.57 1.53 1.59 1.59 1.63 1.58 1.61 1.63 1.65 1.61 1.61 1.57 1.63 1.67 1.62 1.58 1.57 1.57 1.54 1.43 1.33 1.32 1.29 1.30 1.29 1.18 1.05 1.12 1.20 1.24 1.27 1.32 1.32 1.27 1.25
1.12 1.15 1.15 1.20 1.30 1.39 1.37 1.40 1.44 1.43 1.46 1.42 1.45 1.45 1.50 1.54 1.57 1.66 1.68 1.58 1.64 1.70 1.65 1.66 1.62 1.57 1.59 1.54 1.50 1.44 1.39 1.30 1.25 1.26 1.17 1.16 1.15 1.21 1.27 1.29 1.25 1.23 1.33
Wind_Speed
25 24 24 22 20 18 16 14 13 12 11 11 11 11 12 12 13 13 13 12 11 10 9 7 8 9 9 10 11 12 12 12 13 14 14 15 14 14 14 14 14 15 15
27 27 25 23 21 19 17 15 13 12 11 11 11 11 12 13 13 13 13 13 11 10 8 7 9 9 10 10 11 12 12 13 13 14 14 14 14 14 14 15 15 14 14
29 27 26 25 22 20 18 16 14 13 12 12 12 12 13 13 14 14 14 12 11 9 8 8 9 9 10 10 10 11 12 12 12 12 12 12 12 12 12 12 12 12 12
29 28 27 25 23 21 19 17 15 14 13 13 13 13 13 14 14 14 13 12 10 9 8 9 10 10 9 10 10 10 10 10 10 10 10 10 10 10 10 10 10 11 11
30 29 28 26 24 22 19 17 16 14 14 13 14 14 14 14 13 14 12 11 10 9 9 10 10 10 10 10 10 10 9 9 9 9 10 10 10 10 10 10 10 11 11
31 30 29 27 25 22 20 18 16 15 14 14 14 14 14 14 13 13 13 12 11 10 10 10 10 10 9 9 9 9 9 9 9 9 10 10 10 10 10 10 10 11 11
32 30 29 28 25 23 21 19 17 16 15 15 15 14 14 14 14 14 14 13 12 11 11 11 11 10 9 9 10 9 9 9 9 9 9 10 10 10 10 10 10 10 11
34 31 30 28 26 23 21 19 18 17 16 16 15 15 15 15 15 15 14 13 12 11 12 11 10 9 9 9 9 9 9 9 9 9 9 9 9 9 9 9 9 10 10
33 32 31 29 26 24 22 20 18 17 17 16 16 16 16 16 15 15 14 13 12 12 12 11 10 9 9 9 9 9 9 9 8 8 8 8 8 8 8 8 9 9 10
34 33 32 30 27 24 22 20 19 18 17 16 16 16 17 16 16 15 14 13 13 12 12 11 10 9 9 9 8 8 7 7 7 6 6 6 6 6 7 7 8 8 9
36 34 33 30 27 25 23 21 20 19 18 17 17 18 17 16 16 14 14 13 12 12 12 11 10 9 8 8 7 6 5 5 5 4 4 5 5 5 6 6 7 8 8
37 37 34 31 28 26 24 22 21 20 18 18 17 18 17 16 16 14 14 14 13 12 12 11 9 9 7 6 5 4 4 3 2 2 3 3 4 5 6 6 7 8 8
37 36 35 31 29 27 24 23 22 20 19 18 18 18 18 17 16 15 14 14 13 12 11 10 9 8 6 5 3 3 2 1 0 1 2 3 4 5 6 6 7 8 8
35 36 35 33 30 28 26 24 22 21 20 19 19 19 18 17 16 15 15 14 13 12 11 10 9 7 6 4 2 2 3 2 2 3 3 4 4 5 6 7 7 8 8
36 36 37 34 31 29 27 25 24 22 21 21 20 20 19 18 17 16 15 15 14 13 11 10 9 7 6 5 5 4 5 5 5 5 5 5 6 6 7 7 8 9 9
39 38 38 35 33 31 28 27 25 23 22 22 22 21 20 18 17 17 16 15 14 13 12 11 10 9 8 8 7 7 7 7 8 7 7 7 8 8 8 9 9 10 10
40 39 38 36 34 32 30 28 26 25 24 22 23 21 21 19 18 17 17 16 15 14 13 12 11 11 10 10 10 10 10 10 10 10 10 10 10 10 11 11 11 11 12
41 38 38 38 36 34 31 30 27 26 25 24 23 22 22 20 18 17 17 16 16 15 14 14 13 13 13 13 13 13 13 13 13 13 13 13 13 13 13 13 13 14 14
41 40 38 39 37 36 33 32 30 28 27 26 24 23 22 21 20 19 18 18 17 17 16 16 16 16 16 16 16 16 16 15 15 15 15 15 15 15 15 16 16 16 16
38 39 39 38 38 37 34 33 32 29 28 27 25 23 22 22 21 20 19 19 19 19 19 19 19 19 19 19 19 19 18 18 18 18 18 18 18 18 18 19 18 18 18
37 38 37 37 36 36 34 34 33 31 31 28 26 25 24 23 22 21 21 21 21 21 21 21 21 22 22 21 21 21 21 21 21 20 21 20 20 20 20 20 20 20 20
36 36 36 35 36 35 34 34 32 30 30 27 27 26 25 24 24 23 23 23 24 25 25 25 25 24 25 24 22 22 22 22 23 22 22 22 22 22 22 22 21 21 22
33 34 35 34 34 34 34 33 32 31 28 28 27 26 24 25 25 25 24 25 24 25 26 26 27 28 27 26 25 24 22 22 21 21 22 24 24 24 24 23 23 23 23
32 32 32 32 31 33 37 34 36 31 28 27 26 25 26 26 26 28 28 27 30 29 28 28 30 31 29 28 27 28 27 24 22 21 22 23 24 25 25 24 23 23 24
32 32 31 31 30 29 27 27 28 26 27 25 25 25 24 25 26 27 29 28 29 31 31 30 30 33 31 32 32 30 28 27 27 25 25 25 25 25 25 25 25 25 25
33 31 31 31 30 29 28 26 26 26 25 25 25 26 27 28 29 29 26 29 29 33 31 33 31 32 32 28 28 26 27 26 26 28 29 28 28 27 27 26 26 26 26
Wind_Direction
192 189 186 184 181 178 174 171 167 163 160 157 154 153 154 153 152 153 151 148 141 133 125 114 110 107 101 98 97 94 93 90 85 84 84 82 79 77 74 71 71 70 67
187 186 185 183 181 179 177 173 169 165 162 160 156 152 154 155 154 153 151 148 143 136 128 116 118 113 107 103 102 97 96 93 88 87 85 81 78 77 75 73 71 68 65
184 184 182 181 180 179 177 174 171 169 166 162 159 155 152 153 153 152 151 149 145 139 131 124 123 116 111 108 107 103 98 94 91 87 83 79 77 76 74 70 66 61 56
184 183 182 180 180 179 178 176 173 171 168 165 163 160 155 154 152 153 152 152 149 143 134 129 126 119 113 109 109 112 102 96 91 85 80 77 77 74 70 65 59 54 48
186 185 184 182 181 180 179 177 175 172 169 167 165 165 163 159 160 159 156 153 150 145 138 134 128 121 115 113 110 108 104 97 91 84 81 78 75 71 67 63 58 52 47
186 183 182 182 180 180 179 178 176 173 170 167 166 167 167 166 164 163 162 158 151 145 139 136 131 124 117 116 116 108 103 98 91 87 83 78 75 71 66 61 55 50 44
183 183 183 182 180 180 180 179 177 175 172 169 167 165 164 164 163 163 160 156 152 147 142 138 132 124 118 116 115 109 102 97 94 89 84 79 73 69 63 58 52 47 43
189 185 184 182 181 180 180 179 178 176 173 171 169 168 164 161 159 158 158 156 154 151 146 142 135 126 120 119 115 109 103 99 95 89 83 77 71 65 59 53 48 43 38
186 186 185 184 182 181 180 179 178 177 174 172 170 169 167 164 161 159 158 157 155 153 151 146 139 131 124 120 117 111 105 100 95 88 81 74 66 59 53 47 42 37 33
187 187 187 183 183 182 181 180 179 177 174 171 169 168 165 164 162 161 159 159 157 156 155 150 144 137 130 122 120 116 108 101 95 86 76 66 57 49 42 37 31 26 23
186 185 185 184 185 185 184 183 181 179 177 173 171 169 167 165 164 165 165 161 159 158 157 154 150 145 139 132 125 124 115 102 93 81 66 53 44 35 28 23 18 14 12
189 190 187 186 187 187 186 185 184 182 180 178 175 174 171 170 170 168 167 166 163 161 159 158 156 152 148 144 136 136 128 108 88 63 41 29 20 15 11 7 5 3 1
188 187 188 189 189 189 188 186 186 185 184 183 180 179 178 176 174 173 173 172 170 168 168 167 165 165 163 161 158 161 178 165 39 360 356 354 355 355 355 355 354 353 352
190 191 192 193 193 193 191 190 189 189 188 187 186 184 184 183 182 181 180 179 179 178 178 178 179 179 182 188 204 233 224 253 278 303 313 323 329 336 340 343 343 343 343
196 195 194 194 196 196 195 194 193 193 193 192 190 189 188 189 188 188 188 187 187 187 190 192 196 205 219 232 244 255 256 261 273 285 294 303 311 318 324 328 332 334 334
200 198 198 196 198 197 198 198 198 198 197 196 195 194 193 193 194 195 196 197 198 200 204 209 218 228 238 247 257 255 263 269 272 277 284 290 297 304 309 314 318 322 324
202 199 199 199 200 200 201 201 202 202 199 199 198 198 198 198 199 201 203 205 209 212 216 223 232 242 248 255 261 264 266 271 272 274 278 283 288 293 299 302 306 310 314
200 199 199 200 201 202 203 204 204 203 202 202 201 203 204 205 207 207 210 213 216 221 228 235 243 248 255 259 264 267 269 270 272 273 274 279 283 287 291 294 298 302 306
201 201 201 202 203 204 205 206 207 206 207 205 205 207 208 211 213 216 218 221 225 231 238 243 249 254 258 263 266 269 270 271 272 273 273 276 280 283 286 289 292 295 297
200 201 202 203 204 205 206 208 209 210 209 207 209 211 212 216 218 222 227 230 233 240 245 249 252 257 262 265 267 269 270 271 272 273 273 275 278 279 282 286 288 290 291
201 201 201 204 208 207 208 209 212 208 210 212 215 217 219 220 223 228 234 237 241 246 250 253 256 259 263 265 268 271 272 271 270 275 274 274 277 279 281 283 285 287 288
202 203 205 208 209 211 213 217 210 211 211 215 219 222 225 227 231 237 242 246 248 251 252 255 259 262 263 263 268 270 275 273 271 270 272 273 276 278 280 282 282 285 288
202 204 207 209 212 213 213 212 215 218 223 221 225 228 234 235 237 239 244 250 254 254 254 257 260 261 262 262 263 267 272 272 272 274 274 274 273 278 279 281 280 282 286
202 202 205 209 212 216 219 220 221 221 221 229 230 233 240 239 243 245 252 256 255 255 257 261 264 262 259 260 264 264 264 268 269 274 277 279 275 277 278 279 277 281 286
204 206 209 211 214 217 220 221 223 225 228 234 236 244 244 246 247 250 253 259 259 257 256 263 268 263 256 259 265 264 260 262 264 268 277 279 277 277 275 277 277 280 284
208 210 212 215 219 222 225 228 228 231 235 238 242 245 248 251 254 256 256 265 263 261 267 264 262 266 257 259 261 258 260 261 266 270 273 275 274 275 275 276 276 278 282